Weather History for KBFI - November, 2011

Change the Weather History Date:

Tuesday, November 29, 2011

  Actual Average (KSEA) Record (KSEA)
Temperature  
Mean Temperature 40 °F 42 °F  
Max Temperature 45 °F 48 °F 59 °F (1999)
Min Temperature 36 °F 37 °F 18 °F (2006)
Degree Days  
Heating Degree Days 24 23  
Month to date heating degree days 564  
Since 1 July heating degree days 1161  
Cooling Degree Days 0 0  
Month to date cooling degree days 0  
Year to date cooling degree days 189  
Moisture  
Dew Point 37 °F    
Average Humidity 86    
Maximum Humidity 97    
Minimum Humidity 73    
Precipitation  
Precipitation 0.05 in 0.23 in 1.08 in (1964)
Month to date precipitation 6.35  
Year to date precipitation 31.92  
Snow  
Snow 0.00 in - 1.00 in (2006)
Month to date snowfall  
Since 1 July snowfall  
Snow Depth -    
Sea Level Pressure  
Sea Level Pressure 30.27 in    
Wind  
Wind Speed 6 mph (SSE)    
Max Wind Speed 15 mph    
Max Gust Speed 20 mph    
Visibility 10 miles    
Events Rain    
T = Trace of Precipitation, MM = Missing Value Source: NWS Daily Summary

Daily Weather History Graph

Daily Weather History Graph

Search for Another Location

Airport or City:

Trip Planner

Search our weather history database for the weather conditions in past years. The results will help you decide how hot, cold, wet, or windy it might be!

Date:

Astronomy

Nov. 29, 2011 Rise Set
Actual Time 7:33 AM PST 4:21 PM PST
Civil Twilight 6:58 AM PST 4:56 PM PST
Nautical Twilight 6:20 AM PST 5:34 PM PST
Astronomical Twilight 5:43 AM PST 6:11 PM PST
Moon 11:15 AM PST (11/29) 9:30 PM PST (11/29)
Length of Visible Light 9h 57m
Length of Day
8h 47m
Waxing Crescent, 25% of the Moon is Illuminated
Nov 29
Waxing Crescent
Dec 2
First Quarter
Dec 10
Full
Dec 17
Last Quarter
Dec 24
New

Hourly Weather History & Observations

Time (PST) Temp. Windchill Dew Point Humidity Pressure Visibility Wind Dir Wind Speed Gust Speed Precip Events Conditions
12:53 AM 37.0 °F - 36.0 °F 96% 30.43 in 10.0 mi Calm Calm - N/A   Clear
1:53 AM 36.0 °F - 35.1 °F 97% 30.42 in 10.0 mi Calm Calm - N/A   Clear
2:53 AM 36.0 °F - 35.1 °F 97% 30.42 in 10.0 mi Calm Calm - N/A   Partly Cloudy
3:53 AM 36.0 °F 31.1 °F 35.1 °F 97% 30.39 in 9.0 mi SE 5.8 mph - N/A   Overcast
4:22 AM 37.4 °F 32.8 °F 35.6 °F 93% 30.39 in 10.0 mi SSE 5.8 mph - N/A   Mostly Cloudy
4:53 AM 36.0 °F 33.3 °F 35.1 °F 97% 30.39 in 10.0 mi SE 3.5 mph - N/A   Clear
5:53 AM 37.9 °F - 36.0 °F 93% 30.37 in 10.0 mi Calm Calm - N/A   Mostly Cloudy
6:53 AM 37.9 °F - 37.0 °F 97% 30.37 in 10.0 mi Calm Calm - N/A   Overcast
7:53 AM 37.0 °F 32.4 °F 35.1 °F 93% 30.36 in 10.0 mi SE 5.8 mph - N/A   Mostly Cloudy
8:53 AM 37.9 °F 32.7 °F 36.0 °F 93% 30.36 in 10.0 mi SE 6.9 mph - N/A   Mostly Cloudy
9:53 AM 39.0 °F 32.8 °F 37.0 °F 93% 30.32 in 10.0 mi SE 9.2 mph - N/A   Mostly Cloudy
10:53 AM 39.9 °F 35.8 °F 37.0 °F 89% 30.27 in 10.0 mi SE 5.8 mph - N/A   Mostly Cloudy
11:53 AM 42.1 °F 38.4 °F 36.0 °F 79% 30.26 in 10.0 mi SSW 5.8 mph - N/A   Mostly Cloudy
12:53 PM 42.1 °F 36.6 °F 37.9 °F 85% 30.24 in 10.0 mi SE 9.2 mph - N/A   Overcast
1:53 PM 43.0 °F 36.8 °F 37.0 °F 80% 30.23 in 10.0 mi SSE 11.5 mph 19.6 mph N/A   Overcast
2:17 PM 42.8 °F 37.0 °F 35.6 °F 76% 30.24 in 10.0 mi SSE 10.4 mph 18.4 mph N/A   Overcast
2:36 PM 42.8 °F 36.6 °F 35.6 °F 76% 30.23 in 10.0 mi SE 11.5 mph - N/A   Overcast
2:44 PM 42.8 °F 37.5 °F 35.6 °F 76% 30.24 in 10.0 mi SSE 9.2 mph - N/A   Overcast
2:53 PM 42.1 °F 36.6 °F 36.0 °F 79% 30.24 in 10.0 mi SSE 9.2 mph - N/A   Overcast
3:00 PM 42.8 °F 36.2 °F 35.6 °F 76% 30.23 in 10.0 mi SSE 12.7 mph - N/A   Overcast
3:11 PM 42.8 °F 36.2 °F 35.6 °F 76% 30.23 in 10.0 mi SE 12.7 mph - N/A   Overcast
3:53 PM 42.1 °F 35.7 °F 36.0 °F 79% 30.21 in 10.0 mi SSE 11.5 mph - N/A   Overcast
4:53 PM 44.1 °F 39.0 °F 36.0 °F 73% 30.20 in 10.0 mi SSE 9.2 mph - 0.00 in Rain Light Rain
5:53 PM 42.8 °F 35.8 °F 37.4 °F 81% 30.19 in 10.0 mi SSE 13.8 mph - N/A   Overcast
6:53 PM 42.1 °F 34.5 °F 37.9 °F 85% 30.16 in 10.0 mi SE 15.0 mph - 0.01 in   Mostly Cloudy
7:53 PM 42.1 °F 34.9 °F 39.0 °F 89% 30.15 in 10.0 mi SE 13.8 mph - 0.01 in   Overcast
8:53 PM 42.1 °F 36.1 °F 39.9 °F 92% 30.17 in 10.0 mi SSE 10.4 mph - 0.00 in Rain Light Rain
9:19 PM 42.8 °F 39.3 °F 41.0 °F 93% 30.18 in 10.0 mi South 5.8 mph - 0.01 in   Overcast
9:53 PM 45.0 °F 40.1 °F 39.9 °F 82% 30.19 in 10.0 mi South 9.2 mph - 0.01 in Rain Light Rain
10:14 PM 44.6 °F 39.2 °F 39.2 °F 81% 30.19 in 10.0 mi South 10.4 mph - 0.00 in Rain Light Rain
10:53 PM 45.0 °F 39.7 °F 41.0 °F 86% 30.19 in 10.0 mi South 10.4 mph - 0.01 in Rain Light Rain
11:50 PM 44.6 °F 39.2 °F 41.0 °F 87% 30.22 in 10.0 mi South 10.4 mph - 0.01 in Rain Light Rain
11:53 PM 45.0 °F 41.8 °F 41.0 °F 86% 30.23 in 10.0 mi SSW 5.8 mph - 0.01 in   Overcast